Change the Weather History Date:

Saturday, January 14, 2012

  Actual Average Record
Temperature  
Mean Temperature 37 °F -  
Max Temperature 48 °F 49 °F 70 °F (1949)
Min Temperature 26 °F 29 °F 16 °F (1964)
Degree Days  
Heating Degree Days 28    
Moisture  
Dew Point 18 °F    
Average Humidity 49    
Maximum Humidity 71    
Minimum Humidity 28    
Precipitation  
Precipitation 0.00 in - - ()
Sea Level Pressure  
Sea Level Pressure 30.17 in    
Wind  
Wind Speed 10 mph (SW)    
Max Wind Speed 17 mph    
Max Gust Speed 24 mph    
Visibility 10 miles    
Events      
Averages and records for this station are not official NWS values.
T = Trace of Precipitation, MM = Missing Value Source: NWS Daily Summary

Daily Weather History Graph

Daily Weather History Graph

Search for Another Location

Airport or City:

Trip Planner

Search our weather history database for the weather conditions in past years. The results will help you decide how hot, cold, wet, or windy it might be!

Date:

Astronomy

Jan. 14, 2012 Rise Set
Actual Time 7:37 AM EST 5:42 PM EST
Civil Twilight 7:10 AM EST 6:09 PM EST
Nautical Twilight 6:39 AM EST 6:40 PM EST
Astronomical Twilight 6:08 AM EST 7:10 PM EST
Moon 11:42 PM EST (1/14) 10:39 AM EST (1/14)
Length of Visible Light 10h 59m
Length of Day
10h 04m
Waning Gibbous, 69% of the Moon is Illuminated
Jan 14
Waning Gibbous
Jan 16
Last Quarter
Jan 23
New
Jan 30
First Quarter
Feb 7
Full

Hourly Weather History & Observations

Time (EST) Temp. Windchill Dew Point Humidity Pressure Visibility Wind Dir Wind Speed Gust Speed Precip Events Conditions
12:56 AM 30.9 °F 21.7 °F 18.0 °F 59% 30.14 in 10.0 mi West 11.5 mph 20.7 mph N/A   Clear
1:56 AM 30.9 °F 21.2 °F 18.0 °F 59% 30.15 in 10.0 mi West 12.7 mph 18.4 mph N/A   Clear
2:56 AM 30.0 °F 21.7 °F 19.0 °F 64% 30.18 in 10.0 mi West 9.2 mph - N/A   Clear
3:56 AM 28.9 °F 22.8 °F 18.0 °F 64% 30.16 in 10.0 mi SW 5.8 mph - N/A   Clear
4:56 AM 27.0 °F 18.0 °F 18.0 °F 69% 30.17 in 10.0 mi SW 9.2 mph - N/A   Clear
5:56 AM 27.0 °F 21.6 °F 18.0 °F 69% 30.19 in 10.0 mi SW 4.6 mph - N/A   Clear
6:56 AM 26.6 °F 21.2 °F 17.6 °F 69% 30.19 in 10.0 mi SSW 4.6 mph - N/A   Clear
7:56 AM 26.1 °F 19.4 °F 18.0 °F 71% 30.22 in 10.0 mi SW 5.8 mph - N/A   Clear
8:56 AM 32.0 °F 25.6 °F 19.0 °F 59% 30.24 in 10.0 mi SW 6.9 mph - N/A   Clear
9:56 AM 37.4 °F 30.8 °F 17.6 °F 45% 30.23 in 10.0 mi West 9.2 mph - N/A   Clear
10:56 AM 39.9 °F 31.8 °F 16.0 °F 38% 30.25 in 10.0 mi West 15.0 mph 20.7 mph N/A   Clear
11:56 AM 42.1 °F 34.5 °F 16.0 °F 35% 30.22 in 10.0 mi WSW 15.0 mph - N/A   Clear
12:56 PM 44.1 °F 36.5 °F 15.1 °F 31% 30.19 in 10.0 mi West 17.3 mph 24.2 mph N/A   Clear
1:56 PM 46.9 °F - 17.1 °F 30% 30.16 in 10.0 mi SW 13.8 mph - N/A   Clear
2:56 PM 48.0 °F - 17.1 °F 29% 30.14 in 10.0 mi WSW 11.5 mph 21.9 mph N/A   Clear
3:56 PM 48.9 °F - 17.1 °F 28% 30.14 in 10.0 mi WSW 15.0 mph - N/A   Clear
4:56 PM 48.0 °F - 18.0 °F 30% 30.14 in 10.0 mi SW 12.7 mph 21.9 mph N/A   Clear
5:56 PM 43.0 °F 40.3 °F 19.0 °F 38% 30.13 in 10.0 mi South 4.6 mph - N/A   Clear
6:56 PM 39.9 °F 35.1 °F 19.9 °F 45% 30.14 in 10.0 mi South 6.9 mph - N/A   Partly Cloudy
7:56 PM 39.9 °F 35.8 °F 19.0 °F 43% 30.16 in 10.0 mi SSW 5.8 mph - N/A   Clear
8:56 PM 37.9 °F 31.5 °F 21.0 °F 51% 30.15 in 10.0 mi SSW 9.2 mph - N/A   Clear
9:56 PM 39.9 °F 33.9 °F 21.9 °F 49% 30.15 in 10.0 mi SW 9.2 mph - N/A   Mostly Cloudy
10:56 PM 37.9 °F 31.5 °F 21.9 °F 53% 30.13 in 10.0 mi SW 9.2 mph - N/A   Partly Cloudy
11:56 PM 37.0 °F 31.6 °F 21.9 °F 54% 30.13 in 10.0 mi SW 6.9 mph - N/A   Clear